I4GOS-3 Weather Reports


Display with metric or nautical units.
time (UTC)temp
F
wind
direction
speed
MPH
gust
MPH
rain 1hr
in
rain 24hr
in
rain mn
in
humidity
%
barometer
mb
20260506150430 73 166 5.0 0.0 0.00 0.00 0.00 56 1009.4
20260506145930 73 145 3.0 0.0 0.00 0.00 0.00 56 1009.4
20260506145430 73 166 7.0 0.0 0.00 0.00 0.00 56 1009.3
20260506144930 73 142 6.0 0.0 0.00 0.00 0.00 57 1009.3
20260506144430 73 131 8.0 0.0 0.00 0.00 0.00 56 1009.3
20260506143929 73 142 9.0 0.0 0.00 0.00 0.00 56 1009.3
20260506143429 73 145 10.0 0.0 0.00 0.00 0.00 55 1009.2
20260506142929 73 150 12.0 0.0 0.00 0.36 0.00 54 1009.3
20260506142429 74 153 10.0 0.0 0.00 0.36 0.00 54 1009.3
20260506141928 74 153 4.0 0.0 0.00 0.36 0.00 55 1009.2
20260506141428 73 149 8.0 0.0 0.00 0.36 0.00 54 1009.2
20260506140928 73 151 8.0 0.0 0.00 0.36 0.00 55 1009.4
20260506140428 73 176 9.0 0.0 0.00 0.36 0.00 54 1009.6
20260506135928 73 165 12.0 0.0 0.00 0.36 0.00 53 1009.6
20260506135427 73 147 14.0 0.0 0.00 0.36 0.00 54 1009.6
20260506134927 73 146 13.0 0.0 0.00 0.36 0.00 54 1009.8
20260506134427 73 145 2.0 0.0 0.00 0.36 0.00 55 1009.8
20260506133926 73 178 4.0 0.0 0.00 0.36 0.00 55 1009.8
20260506133426 73 144 8.0 0.0 0.00 0.36 0.00 54 1009.9
20260506132926 73 155 9.0 0.0 0.00 0.36 0.00 54 1010.0
20260506132426 73 149 7.0 0.0 0.00 0.36 0.00 53 1010.1
20260506131926 73 142 6.0 0.0 0.00 0.36 0.00 53 1010.2
20260506131425 73 147 6.0 0.0 0.00 0.36 0.00 52 1010.2
20260506130925 73 148 2.0 0.0 0.00 0.36 0.00 52 1010.3
20260506130425 72 141 9.0 0.0 0.00 0.36 0.00 53 1010.3
20260506125925 72 145 5.0 0.0 0.00 0.36 0.00 53 1010.4
20260506125424 72 147 13.0 0.0 0.00 0.36 0.00 53 1010.4
20260506124924 72 138 19.0 0.0 0.00 0.36 0.00 54 1010.5
20260506124424 72 145 10.0 0.0 0.00 0.36 0.00 54 1010.6
20260506123924 72 168 11.0 0.0 0.00 0.36 0.00 53 1010.7
20260506122922 72 160 9.0 0.0 0.00 0.36 0.00 55 1010.5
20260506122422 72 138 10.0 0.0 0.00 0.36 0.00 56 1010.5
20260506121922 72 149 8.0 0.0 0.00 0.36 0.00 55 1010.5
20260506121422 72 149 8.0 0.0 0.00 0.36 0.00 55 1010.5
20260506120921 72 152 8.0 0.0 0.00 0.36 0.00 55 1010.6
20260506120421 72 168 12.0 0.0 0.00 0.36 0.00 55 1010.6
20260506120005 72 154 0.0 0.0 0.00 0.36 0.00 55 1010.6
20260506115921 72 154 0.0 0.0 0.00 0.36 0.00 55 1010.6
20260506115421 72 147 3.0 0.0 0.00 0.36 0.00 56 1010.5
20260506114920 72 137 5.0 0.0 0.00 0.36 0.00 58 1010.6
20260506114420 72 142 9.0 0.0 0.00 0.36 0.00 57 1010.6
20260506113920 72 143 4.0 0.0 0.00 0.36 0.00 58 1010.7
20260506113420 72 133 2.0 0.0 0.00 0.36 0.00 59 1010.7
20260506112920 71 149 0.0 0.0 0.00 0.36 0.00 60 1010.8
20260506112419 71 133 10.0 0.0 0.00 0.36 0.00 60 1010.9
20260506111919 71 137 7.0 0.0 0.00 0.36 0.00 62 1010.9
20260506111419 70 131 7.0 0.0 0.00 0.36 0.00 62 1011.0
20260506110919 70 135 8.0 0.0 0.00 0.36 0.00 62 1011.2
20260506110418 70 137 4.0 0.0 0.00 0.36 0.00 63 1011.1
20260506105918 70 166 8.0 0.0 0.00 0.36 0.00 63 1011.1
20260506105418 70 147 1.0 0.0 0.00 0.36 0.00 64 1011.2
20260506104918 70 154 4.0 0.0 0.00 0.36 0.00 63 1011.1
20260506104418 69 170 2.0 0.0 0.00 0.36 0.00 64 1011.2
20260506103916 69 135 12.0 0.0 0.00 0.36 0.00 63 1011.1
20260506103416 69 141 5.0 0.0 0.00 0.36 0.00 63 1011.1
20260506102916 69 161 8.0 0.0 0.00 0.36 0.00 63 1011.2
20260506102414 69 141 13.0 0.0 0.00 0.36 0.00 63 1011.2
20260506101914 69 147 9.0 0.0 0.00 0.36 0.00 64 1011.3
20260506101414 69 154 9.0 0.0 0.00 0.36 0.00 63 1011.2
20260506100913 69 147 9.0 0.0 0.00 0.36 0.00 63 1011.2
20260506100410 69 138 9.0 0.0 0.00 0.36 0.00 63 1011.2
20260506095910 69 139 14.0 0.0 0.00 0.36 0.00 63 1011.2
20260506095410 69 152 9.0 0.0 0.00 0.36 0.00 63 1011.2
20260506094909 69 140 14.0 0.0 0.00 0.36 0.00 62 1011.2
20260506094408 69 120 11.0 0.0 0.00 0.36 0.00 62 1011.3
20260506093908 69 125 7.0 0.0 0.00 0.36 0.00 62 1011.3
20260506093408 69 145 12.0 0.0 0.00 0.36 0.00 63 1011.3
20260506092908 68 132 6.0 0.0 0.00 0.36 0.00 63 1011.3
20260506092407 68 135 1.0 0.0 0.00 0.36 0.00 63 1011.4
20260506091907 68 128 12.0 0.0 0.00 0.36 0.00 64 1011.4
20260506091407 68 131 9.0 0.0 0.00 0.36 0.00 64 1011.3
20260506090907 68 135 11.0 0.0 0.00 0.36 0.00 64 1011.3
20260506090407 68 125 11.0 0.0 0.00 0.36 0.00 64 1011.4
20260506085906 68 133 6.0 0.0 0.00 0.36 0.00 64 1011.4
20260506085406 68 133 12.0 0.0 0.00 0.36 0.00 64 1011.3
20260506084906 67 123 7.0 0.0 0.00 0.36 0.00 64 1011.3
20260506084406 67 127 10.0 0.0 0.00 0.36 0.00 64 1011.3
20260506083905 67 146 10.0 0.0 0.00 0.36 0.00 65 1011.3
20260506083405 67 133 8.0 0.0 0.00 0.36 0.00 66 1011.2
20260506082905 67 122 0.0 0.0 0.00 0.36 0.00 67 1011.1
20260506082405 66 125 12.0 0.0 0.00 0.36 0.00 67 1011.2
20260506081904 66 127 10.0 0.0 0.00 0.36 0.00 67 1011.2
20260506081404 66 154 6.0 0.0 0.00 0.36 0.00 67 1011.1
20260506080904 66 110 8.0 0.0 0.00 0.36 0.00 67 1011.1
20260506080400 66 135 4.0 0.0 0.00 0.36 0.00 67 1011.2
20260506073358 65 147 10.0 0.0 0.00 0.36 0.00 68 1011.0
20260506072858 65 138 13.0 0.0 0.00 0.36 0.00 69 1011.1
20260506072358 65 133 9.0 0.0 0.00 0.36 0.00 70 1011.1
20260506071858 65 141 9.0 0.0 0.00 0.36 0.00 71 1011.2
20260506071358 64 141 8.0 0.0 0.00 0.36 0.00 72 1011.3
20260506070857 64 139 8.0 0.0 0.00 0.36 0.00 73 1011.2
20260506070357 63 143 4.0 0.0 0.00 0.36 0.00 74 1011.2
20260506062355 62 130 0.0 0.0 0.00 0.36 0.00 69 1011.5
20260506061855 62 130 0.0 0.0 0.00 0.36 0.00 70 1011.6
20260506061355 62 177 0.0 0.0 0.00 0.36 0.00 71 1011.6
20260506060854 62 177 0.0 0.0 0.00 0.36 0.00 71 1011.7
20260506060354 62 177 0.0 0.0 0.00 0.36 0.00 72 1011.6
20260506051352 61 177 0.0 0.0 0.04 0.35 0.00 75 1011.7
20260506050852 61 177 0.0 0.0 0.07 0.35 0.00 76 1011.7
20260506050351 61 177 0.0 0.0 0.07 0.35 0.00 76 1011.8
20260506044851 62 177 1.0 0.0 0.04 0.33 0.00 75 1011.9
20260506044351 62 143 1.0 0.0 0.04 0.33 0.00 75 1011.8
20260506043850 63 141 3.0 0.0 0.00 0.32 0.00 75 1011.8
20260506043350 63 125 6.0 0.0 0.00 0.32 0.00 74 1011.6
20260506042850 63 133 5.0 0.0 0.00 0.32 0.00 73 1011.5
20260506042350 64 141 10.0 0.0 0.00 0.31 0.00 72 1011.5
20260506041849 64 143 7.0 0.0 0.00 0.31 0.00 73 1011.5
20260506041349 63 131 7.0 0.0 0.00 0.31 0.00 73 1011.4
20260506040849 63 143 9.0 0.0 0.00 0.31 0.00 73 1011.4
20260506040349 63 142 6.0 0.0 0.00 0.31 0.00 74 1011.4
20260506035848 63 131 7.0 0.0 0.00 0.31 0.00 74 1011.4
20260506035348 64 174 8.0 0.0 0.00 0.31 0.00 74 1011.4
20260506034848 64 141 5.0 0.0 0.00 0.31 0.00 74 1011.3
20260506034348 64 139 8.0 0.0 0.00 0.31 0.00 74 1011.3
20260506033848 63 131 6.0 0.0 0.00 0.31 0.00 74 1011.2
20260506033347 63 141 7.0 0.0 0.00 0.31 0.00 74 1011.2
20260506032847 63 131 6.0 0.0 0.00 0.31 0.00 74 1011.1
20260506032347 63 140 11.0 0.0 0.00 0.31 0.00 74 1011.1
20260506031847 63 137 8.0 0.0 0.00 0.31 0.00 74 1011.1
20260506031346 63 120 4.0 0.0 0.00 0.31 0.00 74 1011.1
20260506030846 64 98 6.0 0.0 0.00 0.31 0.00 74 1011.0
20260506030346 64 117 8.0 0.0 0.00 0.31 0.00 74 1011.1
20260506025846 63 121 8.0 0.0 0.00 0.31 0.00 74 1011.1
20260506025346 63 133 9.0 0.0 0.00 0.31 0.00 74 1011.1
20260506024845 63 141 8.0 0.0 0.00 0.31 0.00 74 1011.0
20260506024345 63 125 5.0 0.0 0.00 0.31 0.00 74 1011.0
20260506023845 63 127 10.0 0.0 0.00 0.31 0.00 75 1011.1
20260506023344 63 142 6.0 0.0 0.00 0.31 0.00 75 1011.3
20260506022844 63 132 10.0 0.0 0.00 0.31 0.00 75 1011.3
20260506022344 63 123 4.0 0.0 0.00 0.31 0.00 75 1011.4
20260506021844 63 139 2.0 0.0 0.00 0.31 0.00 75 1011.4
20260506021344 63 131 3.0 0.0 0.00 0.31 0.00 75 1011.5
20260506020843 63 137 9.0 0.0 0.00 0.31 0.00 75 1011.5
20260506020343 63 134 9.0 0.0 0.00 0.31 0.00 75 1011.6
20260506015843 63 125 4.0 0.0 0.00 0.31 0.00 75 1011.6
20260506015343 63 139 6.0 0.0 0.00 0.31 0.00 75 1011.7
20260506014842 63 118 9.0 0.0 0.00 0.31 0.00 75 1011.7
20260506014342 63 114 5.0 0.0 0.00 0.31 0.00 75 1011.7
20260506013842 63 143 4.0 0.0 0.00 0.31 0.00 75 1011.8
20260506013342 63 125 5.0 0.0 0.00 0.31 0.00 75 1011.8
20260506012842 63 105 3.0 0.0 0.00 0.31 0.00 75 1011.8
20260506012341 63 90 0.0 0.0 0.00 0.31 0.00 75 1011.8
20260506011841 63 84 0.0 0.0 0.00 0.31 0.00 75 1011.9
20260506011341 63 89 0.0 0.0 0.00 0.31 0.00 75 1012.0
20260506010841 63 110 0.0 0.0 0.00 0.31 0.00 75 1012.1
20260506010340 63 93 3.0 0.0 0.00 0.31 0.00 75 1012.2
20260506005840 63 108 2.0 0.0 0.00 0.31 0.00 75 1012.3
20260506005340 63 116 0.0 0.0 0.00 0.31 0.00 75 1012.2
20260506004840 63 108 1.0 0.0 0.00 0.31 0.00 75 1012.2
20260506004339 63 105 0.0 0.0 0.00 0.31 0.00 75 1012.2
20260506003839 63 103 3.0 0.0 0.00 0.31 0.00 75 1012.2
20260506003339 63 127 0.0 0.0 0.00 0.31 0.00 75 1012.2
20260506002839 63 132 2.0 0.0 0.00 0.31 0.00 75 1012.1
20260506002338 62 133 6.0 0.0 0.00 0.31 0.00 75 1012.2
20260506001837 62 114 3.0 0.0 0.00 0.31 0.00 75 1012.2
20260506001337 62 137 3.0 0.0 0.00 0.31 0.00 75 1012.3
20260506000837 62 135 4.0 0.0 0.00 0.31 0.00 74 1012.3
20260506000337 62 143 3.0 0.0 0.00 0.31 0.00 74 1012.3
20260505235836 62 130 6.0 0.0 0.00 0.31 0.00 74 1012.3
20260505235336 62 128 8.0 0.0 0.00 0.31 0.00 74 1012.4
20260505234836 61 123 7.0 0.0 0.00 0.31 0.00 73 1012.3
20260505234336 61 110 5.0 0.0 0.00 0.31 0.00 73 1012.3
20260505233835 61 138 5.0 0.0 0.00 0.31 0.00 73 1012.4
20260505233335 61 117 4.0 0.0 0.00 0.31 0.00 73 1012.5
20260505232835 61 122 1.0 0.0 0.00 0.31 0.00 72 1012.6
20260505232335 61 120 5.0 0.0 0.00 0.31 0.00 72 1012.7
20260505231834 61 125 5.0 0.0 0.00 0.31 0.00 71 1012.7
20260505231334 61 136 8.0 0.0 0.00 0.31 0.00 70 1012.7
20260505230834 61 146 11.0 0.0 0.00 0.31 0.00 69 1012.7
20260505230334 61 144 4.0 0.0 0.00 0.31 0.00 68 1012.9
20260505225834 60 160 0.0 0.0 0.00 0.31 0.00 68 1012.9
20260505225333 60 141 0.0 0.0 0.00 0.31 0.00 67 1013.0
20260505224833 61 145 0.0 0.0 0.00 0.31 0.00 67 1013.1
20260505224333 61 124 4.0 0.0 0.00 0.31 0.00 66 1013.0
20260505223833 61 126 6.0 0.0 0.00 0.31 0.00 66 1013.1
20260505223332 61 135 3.0 0.0 0.00 0.31 0.00 66 1013.1
20260505222832 61 168 0.0 0.0 0.00 0.31 0.00 65 1013.3
20260505222332 61 134 0.0 0.0 0.00 0.31 0.00 64 1013.2
20260505221832 61 147 0.0 0.0 0.00 0.31 0.00 64 1013.3
20260505221331 61 149 3.0 0.0 0.00 0.31 0.00 64 1013.4
20260505220831 61 156 1.0 0.0 0.00 0.31 0.00 63 1013.3
20260505220331 61 142 7.0 0.0 0.00 0.31 0.00 63 1013.2
20260505215831 62 127 3.0 0.0 0.00 0.31 0.00 63 1013.2
20260505215330 62 95 3.0 0.0 0.04 0.31 0.00 63 1013.2
20260505214830 62 141 0.0 0.0 0.04 0.31 0.00 64 1013.4
20260505214330 62 141 0.0 0.0 0.04 0.31 0.00 64 1013.4
20260505213830 62 147 0.0 0.0 0.04 0.31 0.00 64 1013.4
20260505213330 62 127 1.0 0.0 0.04 0.30 0.00 64 1013.4
20260505212829 62 133 5.0 0.0 0.04 0.30 0.00 65 1013.3
20260505212329 62 125 5.0 0.0 0.04 0.30 0.00 65 1013.3
20260505211829 62 123 12.0 0.0 0.05 0.29 0.00 65 1013.3
20260505211329 62 141 11.0 0.0 0.05 0.29 0.00 66 1013.4
20260505210828 62 129 7.0 0.0 0.05 0.29 0.00 67 1013.4
20260505210328 62 132 8.0 0.0 0.04 0.28 0.00 67 1013.4
20260505205828 62 125 13.0 0.0 0.04 0.28 0.00 68 1013.4
20260505205328 62 133 11.0 0.0 0.00 0.27 0.00 68 1013.3
20260505204828 62 135 12.0 0.0 0.00 0.27 0.00 68 1013.3
20260505204327 62 152 4.0 0.0 0.00 0.27 0.00 69 1013.4
20260505203827 62 152 3.0 0.0 0.00 0.26 0.00 69 1013.4
20260505203327 61 147 12.0 0.0 0.04 0.26 0.00 68 1013.3
20260505202824 61 169 7.0 0.0 0.05 0.26 0.00 68 1013.4
20260505202323 61 149 2.0 0.0 0.05 0.26 0.00 67 1013.5
20260505201823 61 156 4.0 0.0 0.05 0.26 0.00 67 1013.5
20260505201323 61 152 4.0 0.0 0.05 0.25 0.00 67 1013.7
20260505200823 61 166 12.0 0.0 0.05 0.25 0.00 66 1013.7
20260505200323 61 160 6.0 0.0 0.00 0.24 0.00 66 1013.7
20260505195822 61 135 6.0 0.0 0.00 0.24 0.00 65 1013.6
20260505195322 61 143 3.0 0.0 0.00 0.23 0.00 65 1013.5
20260505194822 61 158 4.0 0.0 0.00 0.23 0.00 64 1013.5
20260505194322 62 131 3.0 0.0 0.00 0.23 0.00 63 1013.4
20260505193821 62 131 4.0 0.0 0.00 0.23 0.00 62 1013.3
20260505193321 62 142 0.0 0.0 0.00 0.22 0.00 61 1013.3
20260505192821 62 137 4.0 0.0 0.00 0.22 0.00 61 1013.3
20260505192321 62 118 3.0 0.0 0.00 0.22 0.00 61 1013.2
20260505191820 62 136 8.0 0.0 0.04 0.22 0.00 61 1013.1
20260505191320 62 118 8.0 0.0 0.05 0.22 0.00 62 1013.0
20260505190820 62 122 9.0 0.0 0.09 0.22 0.00 62 1012.9
20260505190320 62 143 7.0 0.0 0.09 0.22 0.00 62 1012.8
20260505185319 63 115 4.0 0.0 0.13 0.20 0.00 64 1012.5
20260505184819 63 123 9.0 0.0 0.15 0.19 0.00 65 1012.7
20260505184319 63 123 3.0 0.0 0.15 0.18 0.00 66 1012.7
20260505183819 63 110 3.0 0.0 0.18 0.17 0.00 67 1012.7
20260505183318 63 111 4.0 0.0 0.15 0.16 0.00 68 1012.9
20260505182818 63 145 1.0 0.0 0.17 0.14 0.00 69 1013.2
20260505182318 63 139 8.0 0.0 0.16 0.13 0.00 70 1013.2
20260505181818 63 139 4.0 0.0 0.13 0.11 0.00 70 1013.2
20260505181317 63 138 8.0 0.0 0.14 0.10 0.00 71 1013.1
20260505180817 63 143 5.0 0.0 0.15 0.09 0.00 72 1013.1
20260505180317 63 135 9.0 0.0 0.13 0.08 0.00 72 1013.0
20260505175317 64 157 3.0 0.0 0.12 0.06 0.00 73 1013.0
20260505174815 64 159 3.0 0.0 0.09 0.05 0.00 74 1013.0
20260505174315 64 142 6.0 0.0 0.08 0.04 0.00 74 1012.9
20260505173811 64 160 1.0 0.0 0.07 0.03 0.00 74 1012.9
20260505173311 64 147 4.0 0.0 0.00 0.02 0.00 74 1012.9
20260505172308 64 139 6.0 0.0 0.00 0.01 0.00 74 1012.8
20260505171807 65 139 4.0 0.0 0.00 0.01 0.00 74 1012.8
20260505171307 65 169 7.0 0.0 0.00 0.01 0.00 74 1012.8
20260505170806 65 144 7.0 0.0 0.00 0.01 0.00 74 1012.7
20260505170306 65 171 2.0 0.0 0.00 0.01 0.00 74 1012.6
20260505165806 65 158 4.0 0.0 0.00 0.01 0.00 74 1012.5
20260505165306 65 131 7.0 0.0 0.00 0.01 0.00 73 1012.4
20260505164805 65 147 9.0 0.0 0.00 0.01 0.00 73 1012.3
20260505164305 66 149 7.0 0.0 0.00 0.01 0.00 72 1012.3
20260505163805 66 156 5.0 0.0 0.00 0.01 0.00 72 1012.3
20260505163305 66 147 7.0 0.0 0.00 0.00 0.00 71 1012.4
20260505162804 67 160 2.0 0.0 0.00 0.00 0.00 71 1012.5
20260505162306 67 141 9.0 0.0 0.00 0.00 0.00 69 1012.5
20260505161304 67 137 7.0 0.0 0.00 0.00 0.00 69 1012.6
20260505160804 67 143 10.0 0.0 0.00 0.00 0.00 68 1012.5
20260505160303 67 159 10.0 0.0 0.00 0.00 0.00 68 1012.6
20260505153302 68 145 3.0 0.0 0.00 0.00 0.00 67 1012.5
20260505152802 68 154 8.0 0.0 0.00 0.00 0.00 66 1012.5
20260505152304 69 190 12.0 0.0 0.00 0.00 0.00 66 1012.6
20260505151801 68 142 8.0 0.0 0.00 0.00 0.00 67 1012.5
20260505151301 68 137 14.0 0.0 0.00 0.00 0.00 67 1012.5
20260505150801 68 140 11.0 0.0 0.00 0.00 0.00 67 1012.5